Regional Weather Roundup
Issued by NWS Little Rock, AR

Home | Current Version | Previous Version | Graphics & Text | Print | Product List | Glossary On
Versions: 1 2 3 4 5 6 7 8 9 10 11 12 13 14 15 16 17 18 19 20 21 22 23 24 25 26 27 28 29 30 31 32 33 34 35 36 37 38 39 40 41 42 43 44 45 46 47
000
ASUS44 KLZK 031805
RWRLZK

WEATHER ROUNDUP FOR ARKANSAS
NATIONAL WEATHER SERVICE LITTLE ROCK AR
100 PM CDT FRI JUL 03 2015

NOTE: "FAIR" INDICATES FEW OR NO CLOUDS BELOW 12,000 FEET WITH NO
SIGNIFICANT WEATHER AND/OR OBSTRUCTIONS TO VISIBILITY.

ARZ001-003-010-029-031900-
NORTHWEST ARKANSAS

CITY           SKY/WX    TMP DP  RH WIND       PRES   REMARKS
FAYETTEVILLE   PTSUNNY   80  72  76 W7        29.94F
6HR MIN TEMP:  70; 6HR MAX TEMP:  80; 6HR PCP:  0.02;

FORT SMITH     PTSUNNY   83  71  67 VRB7      29.92F HX  87
6HR MIN TEMP:  70; 6HR MAX TEMP:  83; 6HR PCP:  0.58;

HARRISON       MOSUNNY   81  72  74 NW7       29.93F HX  85
6HR MIN TEMP:  72; 6HR MAX TEMP:  81;

BENTONVILLE    PTSUNNY   81  68  65 N7        29.94F
6HR MIN TEMP:  70; 6HR MAX TEMP:  81;

ROGERS         MOSUNNY   80  71  74 W10       29.95F
6HR MIN TEMP:  69; 6HR MAX TEMP:  80;

SILOAM SPGS    MOSUNNY   81  70  69 W6        29.95F
6HR MIN TEMP:  70; 6HR MAX TEMP:  82;

HIGHFILL       PTSUNNY   81  72  74 SW6       29.94F HX  85
6HR MIN TEMP:  69; 6HR MAX TEMP:  82;

SPRINGDALE     PTSUNNY   81  72  74 W9        29.96F
$$

ARZ004-005-016-031900-
NORTH CENTRAL ARKANSAS

CITY           SKY/WX    TMP DP  RH WIND       PRES   REMARKS
BATESVILLE     CLOUDY    72  70  94 S7        29.93S
6HR MIN TEMP:  72; 6HR MAX TEMP:  75; 6HR PCP:  0.46;

FLIPPIN          N/A     81  70  69 N3        29.89F
6HR MIN TEMP:  70; 6HR MAX TEMP:  81;

MTN HOME       SUNNY     82  69  64 VRB3      29.90F HX  85
6HR MIN TEMP:  69; 6HR MAX TEMP:  82;

$$

ARZ040-041-031900-
WEST CENTRAL ARKANSAS

CITY           SKY/WX    TMP DP  RH WIND       PRES   REMARKS
MENA           CLOUDY    81  73  78 W7        29.97F HX  85
MOUNT IDA      CLOUDY    81  73  76 MISG      29.94S HX  86
6HR MIN TEMP:  71; 6HR MAX TEMP:  81; 6HR PCP:  0.52;

$$

ARZ009-017-025-026-028-031900-
NORTHEAST ARKANSAS

CITY           SKY/WX    TMP DP  RH WIND       PRES   REMARKS
JONESBORO      CLOUDY    74  71  91 SW12      29.93R
6HR MIN TEMP:  72; 6HR MAX TEMP:  79; 6HR PCP:  0.01;

NEWPORT        CLOUDY    75  74  97 S14       29.93F
6HR MIN TEMP:  71; 6HR MAX TEMP:  76; 6HR PCP:  1.20;

WALNUT RIDGE   PTSUNNY   72  68  88 S8        29.92S
6HR MIN TEMP:  72; 6HR MAX TEMP:  75;

BLYTHEVILLE    LGT RAIN  73  72  96 SW14G23   29.94R
6HR MIN TEMP:  72; 6HR MAX TEMP:  78; 6HR PCP: TRACE;

$$

ARZ022-023-033-042-044-031900-
CENTRAL ARKANSAS

CITY           SKY/WX    TMP DP  RH WIND       PRES   REMARKS
LITTLE ROCK    LGT RAIN  75  70  84 SW8       29.96F
6HR MIN TEMP:  73; 6HR MAX TEMP:  77; 6HR PCP:  1.79;

N LITTLE ROCK  PTSUNNY   72  72 100 SW9       29.96S
JACKSONVILLE   DRIZZLE   74  73  95 SW8       29.95S
6HR MIN TEMP:  73; 6HR MAX TEMP:  77; 6HR PCP:  1.86;

SEARCY         LGT RAIN  74  71  91 SW7       29.95F
6HR MIN TEMP:  72; 6HR MAX TEMP:  75; 6HR PCP:  0.07;

HOT SPRINGS    PTSUNNY   76  72  87 SW5       29.96F
6HR MIN TEMP:  72; 6HR MAX TEMP:  76; 6HR PCP:  1.14;

RUSSELLVILLE   CLOUDY    75  72  90 SW8       29.94S
6HR MIN TEMP:  71; 6HR MAX TEMP:  75; 6HR PCP:  0.55;

CLINTON        FAIR      81  73  78 SW9       29.92F HX  85
$$

ARZ036-031900-
EAST ARKANSAS

CITY           SKY/WX    TMP DP  RH WIND       PRES   REMARKS
WEST MEMPHIS   LGT RAIN  72  71  97 VRB5      29.95F FOG
6HR MIN TEMP:  72; 6HR MAX TEMP:  74; 6HR PCP:  1.09;

$$

ARZ050-053-066-070-073-031900-
SOUTHWEST ARKANSAS

CITY           SKY/WX    TMP DP  RH WIND       PRES   REMARKS
ARKADELPHIA    LGT RAIN  79  79 100 NW3       29.97S FOG
6HR MIN TEMP:  75; 6HR MAX TEMP:  78; 6HR PCP:  0.40;

CAMDEN         LGT RAIN  84  73  70 MISG      29.97F HX  91
TEXARKANA      LGT RAIN  82  73  74 SW16G24   29.98S HX  87
6HR MIN TEMP:  78; 6HR MAX TEMP:  83; 6HR PCP: TRACE;

EL DORADO      CLOUDY    84  73  69 SW7       29.99F HX  90
6HR MIN TEMP:  76; 6HR MAX TEMP:  86;

DE QUEEN       CLOUDY    78  75  90 SW15G22   29.95R
6HR MIN TEMP:  75; 6HR MAX TEMP:  79;

$$

ARZ056-057-069-031900-
SOUTHEAST ARKANSAS

CITY           SKY/WX    TMP DP  RH WIND       PRES   REMARKS
PINE BLUFF     RAIN      74  72  93 SW5       29.99S FOG
6HR MIN TEMP:  73; 6HR MAX TEMP:  76; 6HR PCP:  0.57;

STUTTGART      CLOUDY    72  70  94 SW12      29.97S
6HR MIN TEMP:  72; 6HR MAX TEMP:  79; 6HR PCP:  0.80;

MONTICELLO     CLOUDY    81  76  84 W6        30.00R HX  87
6HR MIN TEMP:  78; 6HR MAX TEMP:  81;


$$





USA.gov is the U.S. government's official web portal to all federal, state and local government web resources and services.